Tracking 28518 objects as of 1-Mar-2024
HD Live streaming from Space Station
objects crossing your sky now

GLOBALSTAR M042

Track GLOBALSTAR M042 now!
10-day predictions
GLOBALSTAR M042 is classified as:


NORAD ID: 25679
Int'l Code: 1999-019D
Perigee: 1,587.8 km
Apogee: 1,593.7 km
Inclination: 52.0 °
Period: 117.8 minutes
Semi major axis: 7961 km
RCS: 2.3601 m2 (large)
Launch date: April 15, 1999
Source: Globalstar (GLOB)
Launch site: TYURATAM MISSILE AND SPACE COMPLEX (TTMTR)
Your satellite tracking list
Your tracking list is empty




NASA's NSSDC Master Catalog

Two Line Element Set (TLE):
1 25679U 99019D   24060.97761809 -.00000043  00000-0  46068-3 0  9991
2 25679  52.0024 306.8096 0003718  48.7236 324.0986 12.22056567127407
Source of the keplerian elements: AFSPC